Location: Eldred Sherwood Park Lake Dam
(42.9416°N, 93.5655°W)
Time: 09:24:20
(UTC+00:00)

Explorer 7 - Pass Details

Date: 10 November 2024
Orbit: 455 x 597 km, 50.3° (Epoch: 09 December)

Event Time Altitude Azimuth Distance (km) Brightness Sun altitude
Exits shadow 10:09:09 24° 88° (E) 1,161 9.1 -31.5°
Drops below altitude 10° 10:11:06 10° 72° (ENE) 1,829 10.3 -31.2°
Sets 10:13:31 0° 64° (ENE) 2,754 11.4 -30.8°
